Location: Foulognes
(49.1413°N, 0.8183°W)
Time: 07:52:17
(UTC+00:00)

Daily predictions for brighter satellites

Satellite Brightness Start Highest point End
(mag) Time Altitude Azimuth Time Altitude Azimuth Time Altitude Azimuth
Unknown 4.1 17:25:32 10° W 17:29:37 55° NNW 17:33:43 10° ENE
Unknown 4.1 17:27:16 10° W 17:31:21 55° N 17:35:26 10° ENE
Cosmos 292 Rocket 4.0 17:27:28 10° S 17:32:00 48° ESE 17:36:35 10° NNE
YAOGAN 6 3.5 17:28:58 10° SE 17:32:04 27° ENE 17:35:11 10° N
Cosmos 1833 Rocket 3.0 17:27:15 10° NNW 17:32:42 48° NE 17:38:07 10° SE
Unknown 4.1 17:28:56 10° W 17:33:01 54° N 17:37:06 10° ENE
Unknown 4.0 17:29:27 10° WNW 17:33:10 45° N 17:36:52 10° ENE
Unknown 4.1 17:30:38 10° W 17:34:42 54° N 17:38:47 10° ENE
Lacrosse 5 rocket 4.2 17:32:42 10° W 17:34:51 15° SW 17:37:03 10° SSW
Unknown 4.1 17:33:58 10° W 17:38:03 53° N 17:42:07 10° ENE
Cosmos 2084 4.3 17:35:14 10° WSW 17:39:39 51° NW 17:44:00 10° NE
Unknown 4.1 17:35:42 10° W 17:39:45 53° N 17:43:50 10° ENE
Unknown 4.1 17:37:17 10° W 17:41:21 52° N 17:45:25 10° ENE
Cosmos 1328 3.8 17:38:06 10° N 17:42:04 63° E 17:45:58 10° SSE
Cosmos 1271 Rocket 3.7 17:38:24 10° NNW 17:42:19 55° W 17:46:14 10° S
Unknown 4.1 17:38:54 10° W 17:42:58 52° N 17:47:02 10° ENE
SMAP 3.7 17:39:06 10° S 17:43:42 62° WSW 17:48:20 10° NNW
SKYMED 2 4.2 17:39:56 10° NNE 17:43:57 35° E 17:47:55 10° SSE
Ariane Rocket 4.2 17:40:04 10° ESE 17:43:59 23° ENE 17:47:55 10° N
Cosmos 2228 3.1 17:39:50 10° S 17:44:12 87° W 17:48:34 10° N
Unknown 4.1 17:40:56 10° W 17:45:00 52° N 17:49:04 10° ENE
Unknown 4.1 17:42:06 10° W 17:46:10 52° N 17:50:10 10° ENE
YAOGAN 1 3.1 17:42:21 10° SE 17:46:19 36° ENE 17:50:17 10° N
Unknown 4.1 17:45:27 10° W 17:49:30 51° N 17:53:22 11° ENE
Unknown 4.1 17:47:07 10° W 17:51:11 51° N 17:54:58 12° ENE
Cosmos 921 Rocket 3.3 17:46:53 10° SSW 17:51:22 77° WNW 17:55:50 10° NNE
Unknown 4.2 17:49:01 10° W 17:53:04 50° N 17:56:46 12° ENE
Shenzhou-11 Module 4.2 17:51:21 10° WSW 17:53:18 17° SSW 17:55:15 10° SSE
Cosmos 1300 4.2 17:51:18 10° SE 17:53:43 16° E 17:56:08 10° NE
Cosmos 1726 Rocket 3.8 17:49:39 10° SSW 17:54:01 75° W 17:58:24 10° N
Unknown 4.2 17:50:28 10° W 17:54:31 51° N 17:58:10 12° ENE
Unknown 4.0 17:50:57 10° WNW 17:54:44 47° N 17:57:58 13° ENE
Cosmos 1939 Rocket 4.0 17:51:53 10° ESE 17:55:07 24° ENE 17:58:23 10° NNE
Abrixas rocket 2.7 17:52:27 10° SW 17:55:21 40° SSE 17:57:37 15° E
Cosmos 489 Rocket 4.4 17:49:58 10° S 17:56:08 70° ESE 18:02:19 10° NNE
Unknown 4.2 17:52:06 10° W 17:56:09 50° N 17:59:43 13° ENE
CZ-2D R/B 4.3 17:55:01 10° ESE 17:58:16 26° ENE 18:01:32 10° N
H-2A R/B 4.0 17:55:20 10° S 17:59:07 47° W 18:02:56 10° NNW
Unknown 4.2 17:55:30 10° W 17:59:33 50° N 18:02:58 14° ENE
Unknown 4.2 17:57:08 10° W 18:01:11 50° N 18:04:32 14° ENE
Unknown 4.2 17:58:50 10° W 18:02:52 49° N 18:06:09 15° ENE
Cosmos 1777 Rocket 4.1 17:57:48 10° NNW 18:03:03 84° WSW 18:08:15 10° SSE
Cosmos 2082 Rocket 2.3 17:57:59 10° NNW 18:03:39 56° NE 18:09:14 10° SE
Unknown 4.1 18:00:26 10° WNW 18:04:22 47° N 18:07:24 16° ENE
Unknown 4.2 18:00:28 10° W 18:04:31 49° N 18:07:43 15° ENE
CSL-04 Debris 4.2 17:59:15 10° SSE 18:04:36 61° ENE 18:10:02 10° N
BREEZE-M DEB (TANK) 3.7 18:00:31 10° WNW 18:04:45 81° SSW 18:16:12 10° ESE
NOSS 3-2 (C) 4.5 18:01:21 10° SSE 18:05:44 22° ESE 18:09:34 13° ENE
Unknown 4.2 18:03:53 10° W 18:07:56 49° N 18:10:59 16° ENE
Cosmos 1242 Rocket 3.7 18:05:02 10° NNW 18:08:36 48° W 18:12:08 10° S
Unknown 4.2 18:04:58 10° W 18:09:00 49° N 18:11:59 17° ENE
ASTEX 1 3.4 18:04:36 10° N 18:09:35 81° E 18:14:35 10° S
Unknown 4.2 18:05:42 10° WNW 18:09:44 48° N 18:12:41 17° ENE
USA 116 3.9 18:07:09 10° NNE 18:10:09 34° E 18:13:20 10° SSE
Unknown 4.2 18:07:01 10° WNW 18:11:00 48° N 18:13:50 18° ENE
Unknown 4.2 18:07:25 10° WNW 18:11:27 48° N 18:14:20 18° ENE
Cosmos 1844 Rocket 4.0 18:08:43 10° WSW 18:13:59 39° NW 18:19:17 10° NNE
Unknown 4.2 18:10:33 10° WNW 18:14:35 48° N 18:17:21 19° ENE
Unknown 3.4 18:13:19 10° WNW 18:16:43 66° SSW 18:19:12 17° SE
Cosmos 1703 3.9 18:13:29 10° NNW 18:17:23 59° W 18:21:14 10° S
Unknown 4.2 18:13:51 10° WNW 18:17:53 48° N 18:20:30 20° ENE
Cosmos 1461 3.2 18:15:02 10° NW 18:19:05 67° SW 18:23:16 10° SSE
Unknown 4.2 18:15:33 10° WNW 18:19:36 48° N 18:22:08 21° ENE
Cosmos 2058 Rocket 3.6 18:15:47 10° SSW 18:20:05 61° WNW 18:24:26 10° N
Unknown 4.2 18:17:12 10° WNW 18:21:13 48° N 18:23:42 21° ENE
Unknown 4.2 18:18:52 10° WNW 18:22:54 48° N 18:25:18 22° ENE
Lacrosse 5 1.9 18:17:58 10° WNW 18:23:03 79° SW 18:27:30 13° SE
SJ 16-02 2.5 18:21:28 10° N 18:25:00 23° NE 18:25:45 22° ENE
CZ-4 R/B 1.7 18:21:43 10° S 18:25:54 74° WSW 18:30:10 10° NNW
FALCON 9 DEB 3.4 18:22:28 10° WNW 18:25:55 66° SSW 18:28:00 22° SE
ATLAS CENTAUR R/B 3.6 18:25:59 10° NNW 18:28:33 14° NNE 18:30:12 12° NE
Unknown 4.2 18:25:34 10° WNW 18:29:36 48° N 18:31:42 25° ENE
Unknown 4.2 18:27:17 10° WNW 18:31:18 48° N 18:33:20 26° ENE
COSMO-SKYMED 1 2.7 18:27:47 10° NNE 18:32:09 79° WNW 18:36:29 10° SSW
Unknown 4.2 18:28:51 10° WNW 18:32:54 48° N 18:34:51 26° ENE
Cosmos 2084 Rocket 3.4 18:28:44 10° NW 18:33:12 81° NE 18:36:06 21° SE
ATLAS 3B R/B 3.5 18:27:52 10° SSE 18:33:14 26° ESE 18:35:04 23° E
ATLAS 5 CENTAUR R/B 3.7 18:30:27 10° WNW 18:34:12 24° NNW 18:38:22 10° NNE
Unknown 4.2 18:30:34 10° WNW 18:34:36 48° N 18:36:29 27° ENE
Unknown 4.2 18:32:13 10° WNW 18:36:16 48° N 18:38:04 28° ENE
Cosmos 1726 3.7 18:33:14 10° SW 18:36:38 36° WNW 18:40:03 10° N
Cosmos 1908 3.9 18:33:54 10° SSW 18:37:44 56° WNW 18:41:35 10° N
Unknown 3.3 18:34:39 10° WNW 18:38:24 71° NNE 18:39:40 39° E
Unknown 4.1 18:35:33 10° WNW 18:39:36 48° N 18:41:16 30° ENE
Envisat 4.2 18:35:10 10° S 18:40:01 45° W 18:44:54 10° NNW
Falcon 9 debris 3.9 18:37:15 10° WNW 18:40:35 47° SSW 18:42:11 26° SSE
CENTAUR R/B 3.2 18:35:55 10° S 18:40:58 29° ESE 18:42:35 26° E
Unknown 3.5 18:37:44 10° WNW 18:41:13 60° SSW 18:42:37 32° SE
Starlink (trailer) 4.1 18:37:13 10° WNW 18:41:16 48° N 18:42:51 31° ENE
Unknown 4.1 18:38:56 10° WNW 18:42:58 49° N 18:44:29 32° ENE
H-2A R/B 3.1 18:42:58 26° ENE 18:43:37 27° ENE 18:48:06 10° N
Cosmos 1459 Rocket 4.0 18:37:31 10° N 18:43:40 56° ENE 18:49:50 10° SSE
Unknown 4.1 18:40:36 10° WNW 18:44:38 49° N 18:46:05 33° ENE
Cosmos 2061 Rocket 4.3 18:39:16 10° N 18:45:14 43° ENE 18:49:20 19° SE
Cosmos 2278 Rocket 2.4 18:40:04 10° SSW 18:45:45 76° WNW 18:51:28 10° NNE
Cosmos 1898 Rocket 3.6 18:42:12 10° NNW 18:47:24 54° ENE 18:50:02 28° SE
Cosmos 1766 Rocket 4.3 18:45:12 10° N 18:48:35 31° ENE 18:48:35 31° ENE
Unknown 4.1 18:45:16 10° WNW 18:49:18 49° N 18:50:31 36° NE
Cosmos 2297 4.0 18:44:21 10° S 18:49:42 43° ESE 18:53:21 20° NE
Unknown 4.1 18:47:16 10° WNW 18:51:18 49° N 18:52:27 38° NE
Unknown 4.1 18:49:14 10° WNW 18:53:18 50° N 18:54:23 39° NE
EO 1 Delta rocket 4.4 18:49:04 10° S 18:53:38 60° W 18:58:45 10° NNW
Unknown 4.1 18:50:34 10° WNW 18:54:39 50° N 18:55:40 40° NE
Unknown 4.1 18:52:16 10° WNW 18:56:20 50° N 18:57:15 41° NE
CSL-04 Rocket 4.4 18:51:06 10° S 18:56:31 55° W 19:01:54 10° NNW
Unknown 4.0 18:54:03 10° WNW 18:58:07 51° N 18:58:57 43° NE
Okean 3 Rocket 3.7 18:55:02 10° N 18:59:29 53° ENE 19:00:14 47° ESE
Cosmos 1076 Rocket 3.6 18:55:27 10° NNW 18:59:49 75° W 19:04:08 10° S
Unknown 4.0 18:57:22 10° WNW 19:01:26 51° N 19:02:08 45° NE
Unknown 4.0 18:57:27 10° WNW 19:01:30 51° N 19:02:12 45° NE
Unknown 4.2 18:59:31 10° WNW 19:02:48 39° SW 19:03:31 34° S
Unknown 4.0 18:58:55 10° WNW 19:02:59 51° N 19:03:37 46° NE
Resurs 01 Rocket 3.8 19:06:08 13° NNE 19:06:08 13° NNE 19:06:52 10° NNE
DMSP B5D1-3 4.4 19:00:00 10° NNE 19:05:10 89° ESE 19:10:19 10° SSW
ARGOS 3.7 19:05:13 36° ENE 19:05:14 36° ENE 19:10:10 10° N
Unknown 4.0 19:02:11 10° WNW 19:06:15 52° N 19:06:45 48° NE
USA 238 DEB 3.6 19:00:08 10° SW 19:06:51 88° SE 19:12:35 16° NE
USA 238 3.6 19:00:14 10° SW 19:06:58 88° SE 19:12:37 17° NE
Cosmos 1892 3.9 19:04:48 10° N 19:06:55 29° NNE 19:06:55 29° NNE
Cosmos 1727 Rocket 4.2 19:02:29 10° SSW 19:08:39 74° W 19:14:51 10° N
Unknown 3.9 19:05:33 10° WNW 19:09:38 53° N 19:09:59 51° NNE
Cosmos 44 3.3 19:04:55 10° SSW 19:09:43 54° ESE 19:09:47 54° ESE
Cosmos 2058 3.0 19:06:08 10° NNW 19:10:23 79° W 19:13:00 22° S
Unknown 3.9 19:07:16 10° WNW 19:11:21 53° N 19:11:37 52° NNE
Unknown 3.3 19:08:00 10° WNW 19:11:47 79° N 19:11:47 79° N
Cosmos 2173 Rocket 3.9 19:05:46 10° N 19:12:04 87° E 19:18:14 10° S
Cosmos 1812 Rocket 4.1 19:08:12 10° SSW 19:12:34 59° WNW 19:17:00 10° N
Unknown 3.9 19:08:57 10° WNW 19:13:02 54° N 19:13:13 53° NNE
Unknown 3.9 19:10:38 10° WNW 19:14:43 54° N 19:14:50 54° NNE
Cosmos 1833 Rocket 4.3 19:11:29 10° NW 19:16:27 33° WSW 19:21:24 10° SSW
Cosmos 1864 Rocket 4.5 19:11:24 10° N 19:17:27 56° ENE 19:18:59 45° ESE
Unknown 3.9 19:13:58 10° WNW 19:18:02 55° N 19:18:02 55° N
Unknown 3.9 19:15:41 10° WNW 19:19:41 56° N 19:19:41 56° N
Cosmos 1802 Rocket 3.9 19:14:15 10° N 19:20:45 84° E 19:26:33 13° S
Unknown 3.9 19:17:16 10° WNW 19:21:12 55° N 19:21:12 55° N
Cosmos 2151 3.3 19:17:12 10° N 19:20:43 54° NNE 19:20:43 54° NNE
Ariane Rocket 3.4 19:17:29 10° S 19:22:32 62° WSW 19:27:37 10° NNW
Unknown 4.0 19:18:53 10° WNW 19:22:45 55° N 19:22:45 55° N
MOS 1 4.2 19:20:54 25° SSE 19:24:24 89° WSW 19:30:05 10° NNW
Unknown 4.0 19:20:57 10° WNW 19:24:45 55° N 19:24:45 55° N
Cosmos 2123 Rocket 4.0 19:24:50 47° SE 19:26:02 54° E 19:32:07 10° NNE
Unknown 4.1 19:22:05 10° WNW 19:25:49 54° N 19:25:49 54° N
Cosmos 468 Rocket 3.8 19:23:07 10° SSW 19:28:19 70° ESE 19:28:19 70° ESE
Cosmos 1300 3.8 19:25:22 10° SSW 19:29:02 44° WNW 19:32:43 10° N
Unknown 4.1 19:25:25 10° WNW 19:29:01 53° NNW 19:29:01 53° NNW
Cosmos 1939 Rocket 4.3 19:26:08 10° SSW 19:29:52 37° W 19:33:41 10° NNW
NOSS 3-2 (A) 3.5 19:24:05 10° SW 19:29:57 80° NW 19:33:48 27° NE
Abrixas rocket 4.3 19:28:02 10° W 19:29:28 25° W 19:29:28 25° W
Unknown 4.2 19:27:05 10° WNW 19:30:37 52° NNW 19:30:37 52° NNW
Unknown 4.2 19:28:57 10° WNW 19:32:25 52° NNW 19:32:25 52° NNW
Cosmos 2233 Rocket 4.3 19:27:23 10° N 19:32:56 47° ENE 19:32:56 47° ENE
SL-24 R/B 4.5 19:27:40 10° NNE 19:33:36 78° ESE 19:36:06 31° S
Unknown 4.2 19:29:43 10° WNW 19:32:44 51° WNW 19:32:44 51° WNW
Cosmos 1000 Rocket 4.4 19:27:45 10° S 19:33:58 85° W 19:40:18 10° N
Unknown 4.3 19:30:25 10° WNW 19:33:49 50° NNW 19:33:49 50° NNW
Cosmos 1725 Rocket 3.9 19:28:19 10° N 19:34:37 73° ENE 19:36:08 53° SE
Unknown 4.3 19:32:02 10° WNW 19:35:22 49° NNW 19:35:22 49° NNW
CZ-2C R/B 3.9 19:38:10 42° NE 19:38:10 42° NE 19:42:35 10° N
Cosmos 1937 Rocket 3.4 19:33:54 10° NNW 19:39:04 83° WSW 19:39:25 76° S
Cosmos 990 Rocket 4.2 19:34:16 10° NNW 19:39:26 66° WSW 19:40:46 47° SSW
Unknown 4.5 19:35:25 10° WNW 19:38:37 47° NW 19:38:37 47° NW
Cosmos 858 Rocket 4.5 19:35:01 10° NNW 19:40:14 79° WSW 19:40:47 69° SSW
Cosmos 2082 Rocket 4.1 19:42:39 10° NW 19:47:24 28° WSW 19:52:07 10° SSW
ADEOS Rocket 3.3 19:43:09 10° NNE 19:50:50 68° E 19:57:55 10° S
NOSS 3-2 (C) 3.4 19:49:51 10° SW 19:55:45 81° NW 19:57:04 58° NNE
Cosmos 2016 Rocket 4.3 19:50:35 10° NNW 19:56:49 66° W 20:00:06 29° SSW
SJ 16-02 2.6 19:59:36 10° NNW 20:02:46 38° WNW 20:02:46 38° WNW
Lacrosse 5 4.0 20:01:57 10° W 20:05:22 18° WSW 20:06:44 17° SW
SPOT 3 Rocket 4.0 20:07:17 60° WNW 20:07:17 60° WNW 20:11:58 10° NNW
ATLAS CENTAUR R/B 3.6 20:04:32 10° NNW 20:06:23 21° NNW 20:06:23 21° NNW
Cosmos 1238 Rocket 4.4 20:03:37 10° N 20:08:47 54° NNE 20:08:47 54° NNE
ATLAS 5 CENTAUR R/B 4.1 20:17:20 10° NW 20:20:34 17° N 20:20:34 17° N
H-2A R/B 2.9 20:23:36 49° WNW 20:23:36 49° WNW 20:28:03 10° NNW
ATLAS 3B R/B 2.8 20:16:33 10° SW 20:22:24 68° WSW 20:22:24 68° WSW
CENTAUR R/B 2.9 20:24:50 10° SW 20:29:52 59° W 20:29:52 59° W
Resurs 01 Rocket 4.4 20:43:42 14° NNW 20:43:42 14° NNW 20:44:20 10° NNW
